Miscellaneous Local Product
Issued by NWS North Platte, NE

Home | Current Version | Previous Version | Text Only | Print | Product List | Glossary On
Versions: 1 2 3 4 5 6 7 8 9 10 11 12 13 14 15 16 17 18 19 20 21 22 23 24 25 26 27 28 29 30 31 32 33 34 35 36 37 38 39 40 41 42 43 44 45 46 47 48 49 50
572
AXUS43 KLBF 170110
MISLBF


WESTERN AND NORTH CENTRAL NEBRASKA HOURLY WEATHER ROUNDUP
NATIONAL WEATHER SERVICE NORTH PLATTE NE
800 PM CDT WED AUG 16 2017

NOTE: "FAIR" INDICATES FEW OR NO CLOUDS BELOW 12,000 FEET WITH NO
SIGNIFICANT WEATHER AND/OR OBSTRUCTIONS TO VISIBILITY.

NOTE: STATIONS NOT REPORTING VARIABLES SUCH AS SKY/WEATHER OR
PRESSURE ARE PROVIDED BY RAWS AND APRS NETWORKS AND ARE NOT UNDER
NATIONAL WEATHER SERVICE QUALITY CONTROL.

...OBSERVATIONS IN AND NEAR THE EASTERN PANHANDLE OF NEBRASKA...

CITY           SKY/WX    TMP DP  RH WIND       PRES   REMARKS
PINE RIDGE     CLEAR     75  48  38 N8        30.00S
GORDON         FAIR      71  52  51 N3        30.01S
CHADRON        CLEAR     75  49  39 SE6       30.00S
ALLIANCE       CLEAR     72  49  44 N5        30.04S
SIDNEY         CLEAR     71  50  47 NE13      30.09R
CRESCENT LAKE    N/A     70  50  48 N6G16       N/A
$$

...OBSERVATIONS IN NORTHERN NEBRASKA AND FAR SOUTHERN SOUTH DAKOTA...

CITY           SKY/WX    TMP DP  RH WIND       PRES   REMARKS
WINNER         FAIR      69  62  78 NW10      29.91R
VALENTINE      CLEAR     73  51  46 N10       29.94S
THEDFORD       PTCLDY    72  54  53 NW9       29.97S
AINSWORTH      CLEAR     69  59  71 NW9       29.93R
O`NEILL        CLOUDY    65  63  93 NW13G18   29.89S
ORD            CLEAR     67  60  78 NW10      29.89R
BROKEN BOW     CLEAR     69  62  78 W7        29.94R
VALENTINE NWR    N/A     72  54  53 N12         N/A
HALSEY           N/A     71  55  56 NW8G16      N/A
BUTTE            N/A     64  61  90 NW12        N/A
CHAMBERS         N/A     67  61  80 W3          N/A
EWING            N/A     65  62  89 NW8         N/A
$$

...OBSERVATIONS IN SOUTHWEST NEBRASKA AND FAR NORTHEAST COLORADO...

CITY           SKY/WX    TMP DP  RH WIND       PRES   REMARKS
HOLYOKE        FAIR      73  55  53 N10       30.06R
IMPERIAL       CLEAR     72  56  57 N9        30.02R
OGALLALA       CLEAR     72  56  57 N6        30.02R
NORTH PLATTE   CLEAR     70  57  63 NW6       29.98R
MCCOOK         CLEAR     72  61  68 N8        29.97R
LEXINGTON      PTCLDY    69  60  72 NW8       29.96R
STAPLETON        N/A     69  58  68 CALM        N/A
GOTHENBURG       N/A     70  55  59 NW10        N/A
CALLAWAY         N/A     68  62  80 NW12        N/A
$$

...OBSERVATIONS IN CENTRAL LINCOLN COUNTY AREA...

CITY           SKY/WX    TMP DP  RH WIND       PRES   REMARKS
N.P. AIRPORT   CLEAR     70  57  63 NW6       29.98R
N.P. SOUTHEAST   N/A     72  57  58 N3          N/A
N.P. HILLCREST   N/A     71  57  61 N7          N/A
$$

...SOME OBSERVATIONS FROM AROUND THE REGION...

CITY           SKY/WX    TMP DP  RH WIND       PRES   REMARKS
DENVER         CLOUDY    72  46  39 NE3       30.15R
LIMON          CLEAR     71  46  40 N7        30.15R
ASPEN          CLOUDY    68  34  28 NW13      30.25R
LARAMIE        CLOUDY    66  33  29 N7        30.21R
CASPER         SUNNY     77  28  16 SW6       30.06F
CHEYENNE       CLOUDY    66  47  50 SW13      30.17R
SCOTTSBLUFF    CLEAR     74  50  42 E5        30.05S
GRAND ISLAND   MOCLDY    68  66  93 NW13      29.90R
OMAHA          PTCLDY    75  65  70 NW8       29.78R
SIOUX FALLS    CLOUDY    67  67 100 NW7       29.72S
PIERRE         CLOUDY    71  56  58 NW12      29.88S
RAPID CITY     CLEAR     77  48  35 N3        29.98R
BISMARCK       PTCLDY    75  52  44 N7        29.90S
KANSAS CITY    CLOUDY    76  72  87 S3        29.82R
HILL CITY      CLEAR     74  61  63 N13       29.94R
WICHITA        CLOUDY    80  69  69 N8        29.85R
DODGE CITY     CLEAR     82  57  42 NW9       29.92S
OKLAHOMA CITY  PTCLDY    84  74  71 S12       29.83R HX  91
DALLAS         PTCLDY    93  71  48 S12       29.84R HX 100
AMARILLO       CLEAR     80  59  48 N6        30.03R
$$




USA.gov is the U.S. government's official web portal to all federal, state and local government web resources and services.